Home   Weather   Kraków   Past weeks

Flag for Poland Past Weather in Kraków, Poland — Yesterday and Last 2 Weeks

Now
70 °F

Sunny.


Feels Like: 70 °F
Forecast: 47 / 79 °F
Wind: 5 mph from East

Location: Krakow Airport

Current Time: Aug 31, 2016 at 6:12:00 PM

Latest Report: Aug 31, 2016 at 5:30 PM


Visibility: 10 mi

Pressure: 30.21 "Hg

Humidity: 50%

Dew Point: 50 °F

Location of KrakówLocation

Past Weather in Kraków — Graph

°F

Kraków Temperature Yesterday

Maximum temperature yesterday: 72 °F (at 3:00 PM)
Minimum temperature yesterday: 57 °F (at 9:00 PM)
Average temperature yesterday: 64 °F

High & Low Weather Summary for the Past Weeks

 TemperatureHumidityPressure
High84 °F (Aug 27, 2:00 PM)100% (Aug 21, 5:00 AM)30.33 "Hg (Aug 21, 5:00 AM)
Low46 °F (Aug 31, 5:30 AM)30% (Aug 19, 3:00 PM)29.83 "Hg (Aug 18, 5:00 PM)
Average65 °F74%30.11 "Hg
* Reported Aug 16 5:00 PM — Aug 31 5:00 PM, Kraków, Weather by CustomWeather, © 2016

Note: Actual official high and low records may vary slightly from our data, if they occured in-between our weather recording intervals... More about our weather records

Advertising

Kraków Weather History for the Previous 24 Hours

Scroll right to see more
 ConditionsComfort  
Time TempWeatherWind HumidityBarometerVisibility
5:00 PM
Wed, Aug 31
72 °FSunny.3 mph47%30.21 "Hg10 mi
4:30 PM72 °FPassing clouds.3 mph44%30.24 "HgN/A
4:00 PM72 °FSunny.3 mph47%30.24 "Hg10 mi
3:30 PM70 °FPassing clouds.5 mph50%30.24 "HgN/A
3:00 PM72 °FPassing clouds.3 mph44%30.24 "HgN/A
2:30 PM70 °FPassing clouds.6 mph46%30.27 "HgN/A
2:00 PM72 °FPassing clouds.2 mph47%30.27 "HgN/A
1:30 PM70 °FPassing clouds.3 mph46%30.27 "HgN/A
1:00 PM68 °FPassing clouds.5 mph49%30.27 "HgN/A
12:30 PM68 °FPassing clouds.5 mph49%30.27 "HgN/A
12:00 PM68 °FPassing clouds.3 mph49%30.27 "HgN/A
11:30 AM68 °FPassing clouds.2 mph53%30.30 "HgN/A
11:00 AM64 °FSunny.3 mph60%30.30 "Hg10 mi
10:30 AM64 °FPassing clouds.3 mph60%30.30 "HgN/A
10:00 AM63 °FSunny.3 mph68%30.30 "Hg10 mi
9:30 AM61 °FPassing clouds.3 mph72%30.30 "HgN/A
9:00 AM61 °FSunny.1 mph68%30.30 "Hg10 mi
8:30 AM59 °FSunny.1 mph68%30.30 "Hg10 mi
8:00 AM54 °FSunny.1 mph82%30.30 "Hg10 mi
7:30 AM50 °FPassing clouds.3 mph88%30.30 "HgN/A
7:00 AM48 °FSunny.2 mph94%30.30 "Hg10 mi
6:30 AM46 °FClear.1 mph93%30.27 "Hg10 mi
6:00 AM46 °FClear.1 mph93%30.27 "Hg10 mi
5:30 AM46 °FClear.1 mph100%30.27 "Hg10 mi
5:00 AM48 °FClear.1 mph94%30.27 "Hg10 mi
4:30 AM48 °FClear.2 mph94%30.27 "Hg10 mi
4:00 AM48 °FClear.1 mph94%30.27 "Hg10 mi
3:30 AM48 °FClear.2 mph94%30.30 "Hg10 mi
3:00 AM50 °FClear.2 mph88%30.30 "Hg10 mi
2:30 AM50 °FClear.3 mph94%30.30 "Hg10 mi
2:00 AM50 °FClear.2 mph88%30.27 "Hg10 mi
1:30 AM52 °FClear.3 mph82%30.27 "Hg10 mi
1:00 AM52 °FClear.2 mph88%30.27 "Hg10 mi
12:30 AM54 °FClear.2 mph82%30.27 "Hg10 mi
12:00 AM55 °FClear.2 mph72%30.27 "Hg10 mi
11:30 PM
Tue, Aug 30
59 °FClear.7 mph59%30.27 "Hg10 mi
11:00 PM61 °FPassing clouds.7 mph55%30.27 "HgN/A
10:30 PM59 °FPassing clouds.7 mph59%30.27 "HgN/A
10:00 PM57 °FClear.2 mph67%30.24 "Hg10 mi
9:30 PM57 °FClear.1 mph72%30.24 "Hg10 mi
9:00 PM57 °FClear.1 mph72%30.24 "Hg10 mi
8:30 PM61 °FClear.6 mph59%30.24 "Hg10 mi
8:00 PM63 °FPassing clouds.6 mph56%30.24 "HgN/A
7:30 PM64 °FSunny.6 mph52%30.21 "Hg10 mi
7:00 PM68 °FSunny.8 mph43%30.21 "Hg10 mi
6:30 PM68 °FSunny.7 mph46%30.21 "Hg10 mi
6:00 PM70 °FPassing clouds.8 mph46%30.21 "HgN/A
Weather by CustomWeather, © 2016

See weather overviewHow to use our weather pages